Forside
METAR-TAF:

METAR-TAF

Lufthavne :

Sparta, Wisconsin, USA

Breddekreds: 43-57-30N, længdekreds: 090-44-16W, højde: 255 m

Aktuelle vejr

Denne rapport blev lavet for 21 minutter siden, kl. 12:15 UTC
Vind stille
Temperatur -1°C
Fugtighed 86%
Tryk 1029 hPa
Sigt: 16.1 km

METAR: KCMY 111215Z AUTO 00000KT 10SM M01/M03 A3039 RMK AO2 T10091028

Tid: 07:36 (12:36 UTC)


TAF: fraværende

Vejrobservationer og prognoser fra mere end 4000 lufthavne (METAR og TAF).

De gule og røde prikker repræsenterer de meteorologiske stationer.

Flyt musen over at se navnet på stationen.

Så klik over at se vejr observationer og prognoser.

At skifte det kort: Klik på de grønne knapper med et sort kors for at zoome ind; på den grønne knap med en bindestreg for at zoome ud; eller på de grønne pile for tilstødende kort.


METAR-TAF: